Temp
68 69 68 68 68 69 69 69 68 68 68 66 66 66 66 65 66 63 60 59 57 57 57 56 56 56 55 51 47 45 44 45 44 43 43 46 44 42 43 41 43 44 42
67 67 67 67 67 66 66 67 67 66 67 65 65 64 64 64 64 61 58 57 57 56 56 54 54 49 49 47 45 46 45 45 43 42 46 44 40 42 42 44 43 42 41
64 64 65 64 64 64 65 66 65 64 64 64 63 62 62 61 60 59 59 58 55 55 53 50 50 48 46 45 43 43 42 42 42 40 40 41 41 43 42 41 38 37 42
60 61 61 61 62 63 64 63 62 62 62 61 59 58 58 58 59 56 54 51 49 48 47 47 47 46 45 44 42 41 41 41 38 38 39 40 40 38 37 36 36 38 40
56 57 55 55 58 58 57 56 54 54 54 53 51 50 49 49 47 48 47 46 45 44 43 44 43 40 38 42 41 41 41 38 37 37 37 36 36 34 36 39 37 39 40
53 54 55 50 45 46 45 43 43 43 45 43 42 43 43 43 42 42 44 45 44 44 43 42 42 38 41 40 40 41 41 39 35 36 36 37 38 38 39 38 37 33 35
50 47 45 42 42 44 43 43 43 43 43 42 42 42 40 42 42 42 40 46 45 45 44 42 40 40 38 41 40 40 39 40 41 42 38 39 38 39 37 34 33 35 36
46 44 43 42 40 39 40 41 41 42 43 41 41 40 39 40 41 40 39 44 43 43 42 41 41 40 39 37 40 38 38 39 41 41 41 41 40 37 35 34 34 32 34
44 44 42 42 39 38 38 39 39 38 37 37 37 36 37 38 40 39 39 38 37 38 39 41 41 39 37 38 36 34 34 36 38 39 39 39 39 39 38 35 32 31 32
44 43 43 41 38 37 38 37 37 37 35 36 34 35 34 36 39 39 39 38 34 36 36 36 35 38 38 38 34 33 32 34 33 32 33 34 36 36 38 34 33 30 30
44 41 39 39 37 38 37 36 35 35 34 33 32 32 33 35 37 38 38 37 36 35 35 35 36 37 38 38 37 33 33 33 34 32 33 34 34 34 36 35 33 32 31
41 38 36 35 36 35 34 34 34 34 33 32 31 32 33 34 36 38 38 38 38 34 34 35 36 37 38 38 36 37 38 34 34 33 32 32 33 34 35 35 33 33 34
36 34 34 34 34 34 34 34 34 34 34 32 32 32 31 32 35 38 38 38 36 34 35 35 35 35 35 36 36 35 33 34 34 32 32 33 34 36 34 33 33 33 33
34 33 33 33 32 33 35 35 35 34 34 32 32 32 31 31 32 34 35 36 34 35 35 34 35 35 35 34 34 35 34 34 33 33 33 35 35 34 33 34 32 33 32
34 33 32 33 32 32 33 34 35 35 36 33 33 33 31 31 32 34 34 33 34 34 33 33 33 33 33 34 34 34 34 34 33 32 32 31 31 31 31 33 32 32 29
32 32 32 32 32 32 32 30 33 33 34 35 35 34 31 35 35 35 35 35 35 35 32 32 32 32 32 31 31 30 31 29 29 29 30 30 29 28 28 29 29 29 28
33 32 32 32 32 32 32 31 29 32 34 34 34 35 36 36 36 36 36 36 36 35 31 31 29 30 29 29 29 29 27 27 29 29 30 30 30 30 29 29 29 28 28
33 32 32 32 32 33 32 32 31 29 28 29 34 34 35 36 36 36 34 31 28 30 29 28 27 27 26 25 24 24 24 24 24 23 24 23 23 23 24 24 25 24 24
31 31 32 32 32 32 31 30 29 28 26 22 22 26 30 31 32 35 32 30 26 23 23 22 23 22 21 20 19 19 18 18 17 18 19 18 18 19 19 19 20 19 19
28 27 27 25 24 25 25 25 24 24 22 22 24 23 18 19 22 20 20 22 21 19 19 18 16 16 16 16 15 15 16 15 15 15 14 14 15 15 15 15 16 16 17
25 24 25 25 24 24 23 23 23 22 20 20 20 17 19 22 18 17 16 17 17 16 15 15 13 13 12 12 12 12 12 13 11 11 12 12 11 11 12 14 14 14 14
21 21 22 20 20 20 20 20 20 19 18 17 17 20 18 16 15 15 14 13 12 12 12 13 12 11 11 11 11 11 10 10 10 10 10 8 9 11 11 11 11 12 12
17 16 16 17 16 16 16 17 17 17 16 16 15 13 12 13 13 12 12 10 9 9 8 8 10 7 7 6 7 9 9 9 9 7 7 8 8 10 10 10 10 9 10
16 15 14 14 15 15 14 13 13 13 13 11 11 11 11 10 10 10 10 9 8 7 6 5 6 7 6 5 5 4 4 4 5 4 4 6 7 8 9 9 9 8 8
14 13 13 13 13 12 12 11 11 11 11 11 10 10 10 10 9 9 8 7 6 6 6 5 5 5 4 3 3 3 4 4 3 4 5 5 6 7 7 7 7 7 7
11 11 11 12 11 12 12 11 11 11 10 10 9 9 10 9 9 9 7 6 5 5 5 5 5 3 3 3 3 3 1 4 3 1 6 8 8 9 8 7 6 6 6
MSLP
1009.28 1009.50 1009.84 1010.12 1010.64 1010.97 1011.17 1011.46 1011.93 1012.45 1012.71 1013.08 1013.46 1013.87 1014.20 1014.51 1014.83 1015.28 1015.64 1016.01 1016.49 1016.76 1016.96 1017.04 1017.06 1017.12 1017.14 1017.35 1017.75 1018.27 1018.65 1019.00 1019.13 1018.88 1019.03 1019.15 1019.45 1019.94 1020.16 1020.94 1020.81 1021.05 1021.32
1008.77 1009.08 1009.21 1009.49 1009.92 1010.37 1010.58 1010.82 1011.26 1011.60 1012.08 1012.52 1012.90 1013.26 1013.48 1013.73 1014.05 1014.47 1014.90 1015.30 1015.62 1015.89 1016.06 1016.27 1016.44 1016.80 1017.15 1017.50 1017.97 1018.46 1018.72 1018.94 1019.04 1019.08 1019.00 1019.10 1019.65 1019.84 1020.33 1020.67 1020.66 1020.71 1020.90
1008.43 1008.65 1008.87 1009.05 1009.35 1009.71 1010.07 1010.46 1010.90 1011.36 1011.67 1012.12 1012.46 1012.75 1013.05 1013.41 1013.75 1014.01 1014.21 1014.49 1014.77 1015.07 1015.53 1015.98 1016.45 1016.87 1017.33 1017.74 1018.21 1018.45 1018.77 1019.13 1019.26 1019.25 1019.38 1019.67 1019.85 1020.25 1020.26 1020.60 1020.94 1020.96 1020.67
1008.41 1008.36 1008.53 1008.77 1009.05 1009.45 1009.95 1010.39 1010.75 1011.08 1011.44 1011.79 1012.17 1012.48 1012.81 1013.11 1013.43 1013.69 1013.98 1014.36 1014.81 1015.21 1015.58 1016.09 1016.42 1016.83 1017.25 1017.72 1018.09 1018.49 1018.81 1019.16 1019.32 1019.44 1019.58 1019.98 1020.02 1020.32 1020.52 1020.52 1020.46 1020.42 1020.12
1008.74 1008.88 1008.92 1009.10 1009.33 1009.72 1010.13 1010.51 1010.98 1011.30 1011.57 1011.82 1012.25 1012.68 1013.04 1013.34 1013.58 1013.84 1014.25 1014.67 1015.06 1015.59 1015.95 1016.32 1016.60 1016.97 1017.30 1017.82 1018.19 1018.52 1018.79 1019.38 1019.47 1019.57 1019.57 1019.60 1019.86 1020.20 1020.01 1019.96 1019.98 1019.65 1019.56
1008.53 1008.70 1009.01 1009.34 1009.79 1010.22 1010.68 1011.07 1011.38 1011.74 1012.00 1012.23 1012.63 1012.97 1013.43 1013.86 1013.96 1013.91 1014.08 1014.72 1015.17 1015.53 1015.93 1016.24 1016.37 1016.77 1017.13 1017.51 1017.94 1018.11 1018.45 1018.83 1019.01 1018.89 1019.06 1018.92 1019.18 1019.41 1019.79 1020.08 1020.11 1019.96 1019.25
1008.50 1008.67 1009.08 1009.60 1010.12 1010.48 1010.81 1011.12 1011.61 1012.03 1012.42 1012.70 1012.97 1013.27 1013.63 1014.00 1014.16 1014.21 1014.31 1014.60 1014.96 1015.37 1015.75 1016.06 1016.31 1016.55 1016.92 1017.18 1017.76 1017.74 1018.08 1018.11 1018.29 1018.01 1018.08 1018.47 1018.92 1019.05 1019.48 1019.89 1020.06 1019.91 1019.72
1008.49 1008.59 1009.02 1009.72 1010.06 1010.44 1010.87 1011.20 1011.61 1012.06 1012.52 1013.04 1013.45 1013.80 1014.01 1014.36 1014.35 1014.44 1014.40 1014.73 1015.07 1015.42 1015.59 1015.91 1015.85 1016.42 1016.88 1017.03 1017.34 1017.75 1018.23 1018.44 1018.51 1018.35 1018.24 1018.42 1018.83 1019.24 1019.70 1020.03 1020.24 1020.11 1019.74
1008.26 1008.68 1008.65 1009.30 1009.97 1010.28 1010.57 1010.97 1011.45 1011.95 1012.50 1012.97 1013.39 1013.79 1014.12 1014.54 1014.57 1014.46 1014.57 1014.76 1015.05 1015.35 1015.58 1015.88 1016.22 1016.65 1016.85 1017.17 1017.48 1018.46 1018.64 1018.66 1018.44 1018.31 1018.35 1018.45 1018.66 1019.00 1019.28 1019.74 1019.91 1019.84 1019.41
1007.17 1007.51 1008.05 1008.35 1009.24 1009.87 1010.17 1010.41 1011.09 1011.56 1012.18 1012.79 1013.30 1013.60 1014.13 1014.28 1014.48 1014.61 1014.72 1015.16 1015.31 1015.68 1016.19 1016.28 1016.26 1016.46 1016.76 1017.28 1017.79 1018.54 1018.59 1018.62 1018.59 1018.55 1018.49 1018.51 1018.60 1018.71 1019.09 1019.60 1019.73 1019.74 1019.80
1006.28 1006.96 1007.64 1007.77 1008.51 1009.09 1009.76 1010.23 1010.92 1011.63 1012.29 1012.85 1013.22 1013.75 1014.37 1014.12 1014.45 1014.76 1014.71 1014.93 1015.20 1015.45 1016.15 1016.23 1016.23 1016.39 1016.69 1017.26 1017.74 1018.33 1018.26 1018.34 1018.44 1018.42 1018.43 1018.55 1018.73 1018.82 1018.74 1018.83 1019.12 1019.45 1019.35
1005.19 1006.09 1007.13 1007.61 1008.14 1008.95 1009.87 1010.26 1010.74 1011.54 1012.13 1012.77 1013.36 1014.03 1014.45 1014.34 1014.32 1014.42 1014.62 1014.92 1014.87 1015.26 1015.60 1015.59 1016.09 1016.60 1017.20 1017.44 1017.63 1017.77 1017.86 1018.15 1018.40 1018.57 1018.61 1018.63 1018.57 1018.59 1018.48 1018.54 1018.77 1018.90 1018.89
1005.10 1005.87 1006.61 1007.33 1008.00 1008.64 1009.03 1009.68 1010.29 1010.83 1011.39 1012.23 1012.95 1013.67 1014.20 1014.44 1014.37 1014.33 1014.73 1015.00 1015.47 1015.66 1015.31 1015.23 1015.98 1016.84 1017.64 1017.71 1017.91 1018.00 1018.15 1018.33 1018.24 1018.31 1018.27 1018.19 1018.23 1018.27 1018.31 1018.30 1018.45 1018.63 1018.59
1004.96 1005.65 1006.35 1006.97 1007.76 1008.61 1009.21 1009.53 1009.77 1010.11 1010.65 1011.27 1011.95 1012.76 1013.42 1014.05 1014.38 1014.42 1014.56 1015.08 1015.77 1015.57 1015.44 1015.88 1016.15 1016.94 1017.77 1017.93 1018.09 1018.33 1018.47 1018.48 1018.44 1018.27 1018.12 1017.99 1018.07 1018.07 1018.11 1018.16 1018.17 1018.06 1017.92
1004.93 1005.81 1006.32 1006.49 1007.18 1008.04 1008.81 1009.25 1009.51 1009.88 1010.23 1010.31 1010.92 1011.63 1012.30 1013.06 1013.54 1013.80 1014.26 1014.86 1015.27 1015.45 1015.78 1016.36 1016.55 1016.81 1017.43 1017.70 1018.15 1018.34 1018.57 1018.66 1018.50 1018.41 1018.20 1018.04 1018.05 1018.13 1018.09 1017.99 1017.81 1017.66 1017.57
1003.81 1005.02 1006.02 1006.50 1007.03 1007.52 1008.34 1009.55 1010.09 1010.31 1010.91 1010.73 1011.06 1011.36 1012.13 1012.36 1013.06 1013.88 1014.43 1014.99 1015.29 1015.54 1016.26 1016.63 1016.59 1016.91 1017.48 1017.96 1018.19 1018.57 1018.93 1019.22 1019.14 1018.85 1018.42 1018.16 1018.16 1018.17 1018.10 1017.93 1017.92 1017.67 1017.31
1003.04 1003.93 1004.95 1005.88 1006.80 1007.10 1008.00 1008.66 1009.71 1010.74 1011.24 1011.42 1011.50 1011.80 1012.09 1012.47 1013.30 1013.98 1014.57 1014.97 1015.38 1015.95 1016.28 1016.69 1016.77 1017.15 1017.83 1018.16 1018.48 1019.03 1019.41 1019.63 1019.42 1018.99 1018.67 1018.35 1018.20 1018.31 1018.15 1017.89 1017.77 1017.49 1017.14
1003.36 1003.70 1004.32 1005.31 1006.27 1007.24 1008.17 1008.75 1009.66 1009.99 1010.56 1011.21 1011.90 1012.17 1012.58 1013.10 1013.52 1014.05 1014.82 1015.47 1015.96 1016.34 1016.66 1017.07 1017.23 1017.67 1018.17 1018.64 1019.08 1019.74 1020.15 1020.20 1020.00 1019.86 1019.63 1019.44 1019.27 1018.90 1018.60 1018.37 1018.19 1017.93 1017.65
1003.58 1003.91 1004.21 1004.99 1006.16 1007.21 1008.34 1009.31 1009.94 1010.78 1011.22 1011.65 1012.32 1012.99 1013.38 1013.85 1013.98 1014.19 1015.04 1015.33 1016.09 1016.78 1017.08 1017.49 1017.82 1018.27 1018.60 1018.95 1019.62 1020.27 1020.44 1020.47 1020.40 1020.20 1020.11 1020.14 1020.04 1019.78 1019.51 1019.30 1018.97 1018.63 1018.34
1004.10 1004.26 1004.42 1005.24 1006.27 1007.39 1008.49 1009.49 1010.26 1011.39 1011.70 1012.15 1012.69 1013.51 1014.28 1014.70 1014.85 1015.32 1015.75 1015.94 1016.64 1017.25 1017.59 1017.98 1018.43 1018.77 1019.14 1019.62 1019.98 1020.44 1020.47 1020.52 1020.79 1020.78 1020.90 1020.73 1020.43 1020.45 1020.24 1019.97 1019.51 1019.01 1018.45
1004.72 1004.93 1005.00 1005.81 1006.44 1007.72 1008.74 1009.66 1010.76 1011.47 1011.93 1012.54 1013.16 1013.91 1014.21 1014.34 1015.05 1015.68 1016.20 1016.57 1017.18 1017.67 1017.96 1018.27 1018.71 1019.07 1019.59 1020.12 1020.43 1020.28 1020.45 1020.61 1020.92 1021.09 1021.10 1020.99 1020.91 1020.77 1020.66 1020.41 1019.90 1019.30 1018.99
1005.42 1005.73 1005.62 1006.41 1007.46 1008.44 1009.36 1010.57 1011.34 1012.20 1012.73 1013.25 1013.90 1014.11 1014.69 1015.22 1015.69 1016.12 1016.78 1017.52 1017.78 1018.13 1018.46 1018.49 1018.81 1019.20 1019.76 1020.17 1020.39 1020.45 1020.57 1020.88 1021.04 1021.12 1021.19 1021.08 1020.81 1020.54 1020.59 1020.26 1019.73 1019.40 1019.35
1006.56 1006.69 1007.20 1007.85 1008.40 1009.44 1010.66 1011.41 1012.10 1013.04 1013.37 1013.86 1014.36 1014.77 1015.36 1015.79 1016.15 1016.84 1017.30 1017.75 1018.29 1018.56 1018.86 1019.14 1019.41 1019.74 1019.96 1020.39 1020.58 1020.54 1020.62 1020.72 1021.01 1021.19 1021.25 1021.04 1020.60 1020.45 1020.53 1020.18 1019.91 1019.85 1019.83
1008.52 1008.62 1008.73 1009.29 1010.29 1011.10 1011.60 1012.40 1013.38 1013.76 1014.04 1014.48 1014.93 1015.45 1015.93 1016.25 1016.61 1016.93 1017.20 1017.87 1018.23 1018.57 1019.03 1019.37 1019.53 1019.65 1019.69 1020.04 1020.24 1020.45 1020.79 1020.85 1021.15 1021.40 1021.21 1020.82 1020.50 1020.23 1020.30 1020.25 1020.13 1019.87 1019.66
1010.53 1010.94 1011.32 1011.72 1011.93 1012.30 1012.87 1013.74 1014.28 1014.43 1014.77 1014.97 1015.39 1015.73 1016.06 1016.40 1016.73 1016.91 1017.29 1017.64 1017.94 1018.45 1018.82 1019.07 1019.38 1019.51 1019.61 1019.82 1019.95 1019.95 1020.25 1020.49 1020.69 1020.84 1020.69 1020.48 1020.18 1020.10 1019.97 1020.00 1019.86 1019.51 1019.06
1012.64 1012.91 1013.11 1013.30 1013.59 1013.91 1014.33 1014.64 1014.76 1014.91 1015.05 1015.32 1015.49 1015.85 1016.09 1016.29 1016.58 1016.85 1017.24 1017.50 1017.87 1018.18 1018.54 1018.64 1018.77 1018.93 1018.95 1019.04 1019.12 1019.29 1019.54 1019.63 1019.84 1019.91 1019.91 1019.69 1019.65 1019.42 1019.43 1019.73 1019.62 1019.39 1018.99
Wind_Speed
16 16 16 15 16 16 14 14 14 13 13 14 13 13 13 12 12 11 10 9 8 9 9 10 11 10 7 4 2 2 2 3 4 2 2 3 3 5 4 6 8 9 7
13 15 15 16 15 14 15 15 13 14 13 13 12 12 12 12 11 12 10 9 10 10 10 9 9 2 3 3 3 4 3 4 3 5 2 1 4 1 4 6 6 6 6
12 14 14 14 13 15 15 15 13 12 12 11 11 11 11 10 9 10 10 9 9 8 4 4 3 4 3 2 2 2 2 2 3 2 1 1 1 2 2 4 4 5 7
11 12 13 13 13 13 11 11 11 10 10 9 8 8 7 7 8 6 5 4 4 4 4 3 3 3 4 3 3 3 3 3 2 2 1 0 1 1 2 3 4 6 7
8 9 10 6 6 6 7 5 3 4 3 4 5 4 4 4 3 5 5 5 5 5 4 4 4 3 5 2 1 1 2 2 1 1 1 2 3 3 3 2 4 5 6
7 8 7 5 4 4 5 5 5 5 5 5 6 6 6 3 7 9 7 6 5 5 5 5 5 4 4 4 4 3 4 5 4 4 3 3 3 3 2 3 3 2 3
6 5 5 6 6 6 6 6 6 6 5 5 5 6 6 5 9 10 9 7 7 6 6 6 5 4 5 5 6 5 8 11 9 5 4 3 2 3 1 2 3 3 5
7 7 7 8 7 6 6 6 5 5 7 6 6 6 6 4 8 11 10 8 6 6 6 5 6 6 6 6 6 5 4 3 4 1 1 1 1 0 1 1 2 3 4
10 9 10 10 10 10 10 9 6 7 6 5 5 6 6 4 9 11 8 6 6 6 5 5 5 4 5 6 4 3 2 1 1 1 2 3 4 4 3 1 4 4 5
13 14 12 12 11 11 11 11 7 8 8 7 6 5 4 5 9 10 8 5 6 5 5 5 6 5 5 7 4 4 3 1 2 2 3 4 4 1 3 3 1 4 4
11 10 10 11 11 11 11 6 9 9 8 7 7 5 3 4 8 11 11 5 6 6 5 5 3 7 8 10 7 3 3 4 3 2 2 2 1 1 2 2 4 4 5
13 12 11 10 9 9 11 10 10 10 10 9 8 7 4 4 8 11 11 9 11 7 6 6 5 8 7 8 5 5 4 6 2 1 0 1 2 2 2 3 5 6 6
12 12 11 11 9 10 13 13 11 11 10 9 8 7 7 4 3 11 14 14 12 6 6 12 14 11 9 7 5 6 3 1 2 3 2 2 3 4 3 3 4 6 7
13 13 12 12 11 9 7 8 9 9 9 10 9 8 7 6 6 6 5 8 11 7 12 8 9 9 7 6 4 4 2 2 1 1 1 2 2 3 4 4 5 5 5
10 10 11 10 12 10 7 7 7 6 8 10 9 9 10 9 7 10 9 8 7 8 8 6 5 6 5 5 3 2 1 1 2 1 2 3 3 4 4 5 6 6 6
14 11 10 9 9 9 9 7 6 7 8 10 14 10 3 10 16 15 15 15 15 17 5 5 6 5 5 4 3 2 1 1 1 2 2 2 2 3 4 4 4 5 6
13 13 10 10 10 10 10 11 11 10 15 15 15 14 14 16 17 16 16 16 16 11 5 6 6 6 5 4 3 2 1 1 3 2 3 3 3 4 5 4 5 5 6
10 15 11 10 10 10 9 10 9 11 11 10 12 11 15 16 15 18 18 13 7 6 6 6 6 5 4 3 3 2 1 2 2 3 3 3 4 4 5 5 6 6 7
10 9 10 10 9 9 8 8 8 8 8 7 6 7 10 13 10 17 14 4 7 6 5 5 4 4 4 3 3 1 0 1 2 3 3 3 4 4 5 5 6 6 7
7 11 11 9 9 9 7 8 8 8 9 8 8 8 5 5 5 3 3 5 5 5 4 5 4 3 3 3 2 1 1 1 2 2 2 3 3 3 4 5 5 6 6
7 8 11 9 9 8 8 8 7 7 7 6 6 6 9 4 6 6 5 4 5 5 5 5 4 4 3 3 2 2 1 1 1 1 2 2 2 3 3 4 5 5 6
5 5 7 8 7 7 7 6 6 6 6 7 6 7 10 5 5 5 5 4 3 3 3 3 3 3 3 3 2 2 2 3 3 2 2 2 2 2 3 4 4 4 6
6 8 8 7 8 11 7 6 6 6 6 6 6 5 4 4 4 4 4 4 3 3 3 2 2 3 3 3 3 3 3 3 3 2 3 3 3 3 3 4 4 5 5
8 9 9 8 7 7 7 6 5 6 6 5 4 4 4 4 4 5 4 4 4 3 3 3 3 4 4 3 3 4 4 4 3 5 6 5 4 4 4 5 5 6 6
10 9 8 7 6 6 6 5 4 4 4 4 4 3 3 3 4 3 3 3 3 3 4 4 4 6 7 8 7 7 7 8 7 6 5 6 6 7 6 5 6 6 6
9 8 7 6 5 5 3 3 3 3 3 3 3 3 3 3 3 3 3 3 4 5 6 5 7 10 9 8 9 9 8 10 9 9 7 6 7 6 5 7 7 5 6
Wind_Direction
225 219 215 213 215 217 218 219 220 220 215 216 217 219 222 224 223 219 218 222 215 228 226 227 233 232 233 210 153 121 179 183 236 254 252 236 246 242 250 228 232 230 224
225 221 218 216 213 214 216 217 215 217 215 217 217 218 221 222 220 217 212 208 216 221 228 219 232 199 187 152 171 206 214 210 203 250 283 264 242 337 264 248 232 225 226
219 218 218 217 211 214 217 220 215 216 218 217 216 218 218 218 212 209 213 214 210 218 207 171 167 177 193 171 195 201 203 213 234 236 296 43 17 300 265 252 263 234 242
221 213 214 212 213 216 216 214 212 211 212 210 204 204 206 206 215 210 194 154 120 116 116 121 138 178 205 195 197 203 200 224 193 212 223 286 291 130 254 254 250 230 251
232 228 224 205 195 190 188 178 151 161 161 139 126 109 102 103 108 125 133 133 127 123 118 121 83 44 23 351 106 171 164 225 212 202 182 176 196 208 219 200 256 277 264
217 222 202 176 149 147 127 128 128 131 126 121 122 129 118 103 117 117 130 128 129 138 140 129 123 114 108 130 181 159 185 197 178 182 197 224 231 233 216 254 273 295 302
206 178 169 155 159 156 149 144 141 139 129 130 128 129 121 124 139 133 129 141 148 158 160 149 138 141 168 162 180 175 200 204 211 200 205 222 236 204 146 206 226 255 269
200 177 167 170 166 155 152 153 145 142 146 141 139 136 132 150 157 150 145 141 138 145 152 158 155 163 180 163 174 182 195 204 221 213 237 307 307 28 200 25 341 291 277
200 202 180 177 170 168 168 164 152 143 140 149 148 145 143 162 164 150 142 138 142 140 122 139 142 154 152 170 131 154 175 201 158 191 278 299 272 276 238 215 287 300 302
196 197 189 174 174 176 169 161 156 153 145 143 134 139 151 154 162 163 156 145 126 128 118 121 108 107 131 153 146 166 162 171 73 30 29 21 12 92 321 192 237 279 300
190 180 183 175 173 169 159 151 147 145 137 134 127 128 149 148 153 157 156 149 152 139 143 128 111 113 131 152 145 165 166 150 68 53 52 56 48 310 275 212 206 237 265
173 172 175 168 161 156 156 150 149 148 143 142 140 146 164 172 165 156 149 149 147 142 146 124 108 119 139 152 150 180 186 150 145 120 31 302 311 300 247 214 213 215 224
166 171 168 162 162 165 162 161 157 157 155 156 162 164 166 169 157 158 157 144 141 138 128 117 114 116 117 112 115 86 95 111 172 194 215 260 282 284 277 259 248 256 260
173 167 163 164 160 164 170 170 165 168 164 166 164 162 157 164 167 161 152 151 149 135 124 116 133 130 128 125 127 125 127 135 169 202 267 305 328 316 314 316 310 311 302
165 166 170 166 166 159 164 171 175 179 184 171 169 161 160 169 178 167 165 162 157 143 131 145 148 143 146 147 148 125 114 151 186 353 335 333 322 324 324 328 317 312 300
162 165 173 166 161 156 148 141 125 146 163 153 151 152 136 137 148 154 155 152 150 149 154 156 143 140 144 148 141 140 110 24 352 328 333 334 329 315 309 304 302 301 298
173 165 159 160 164 156 156 149 141 128 133 133 133 136 139 145 148 149 150 152 155 152 149 151 147 148 153 149 136 137 144 14 333 349 333 328 320 312 306 298 293 283 292
164 159 156 154 155 153 158 152 154 150 147 141 138 138 146 146 152 153 134 123 130 141 156 157 148 145 135 121 96 79 1 339 350 348 341 349 338 325 316 314 313 319 319
155 157 150 144 145 145 144 145 142 144 145 125 116 97 132 137 143 155 153 155 154 152 147 137 132 132 127 124 126 142 337 355 359 352 1 355 350 340 326 326 319 321 319
140 142 140 131 130 132 134 143 142 156 150 148 151 148 135 126 159 137 116 134 137 137 140 137 130 128 124 130 137 150 179 53 12 0 349 343 350 333 323 324 322 322 322
148 143 136 135 136 146 144 147 153 156 150 151 145 154 165 162 140 139 135 132 141 147 146 143 144 135 136 149 169 155 149 190 210 250 282 310 328 315 319 303 303 312 314
112 124 118 115 114 117 112 126 128 129 133 134 134 122 124 117 127 127 131 143 132 127 131 137 141 151 163 177 182 193 200 214 214 223 257 263 271 281 280 289 309 312 300
83 94 91 92 95 101 105 107 116 134 131 128 130 126 123 129 124 140 145 140 157 159 145 160 176 174 168 189 205 226 225 226 230 217 240 251 253 259 268 288 297 293 291
52 62 75 75 87 98 97 99 105 112 122 123 126 135 144 145 152 161 154 159 166 164 173 192 211 211 193 205 210 214 231 237 228 232 228 243 254 254 265 275 276 272 274
43 48 55 62 67 79 96 106 116 120 128 141 152 154 154 168 176 171 175 176 180 198 212 210 219 224 225 224 224 219 226 237 234 236 232 230 245 255 255 255 268 276 276
44 46 48 50 57 65 84 117 132 145 152 164 170 188 190 190 195 195 196 196 210 217 224 222 224 225 228 231 232 230 228 234 231 226 233 239 245 250 243 257 269 275 282